Location: Rio de Janeiro
(22.9068°S, 43.1729°W)
Time: 13:55:03
(UTC-03:00)

Hubble Space Telescope - Pass Details

Date: 29 November 2023
Orbit: 515 x 519 km, 28.5° (Epoch: 02 March)

Event Time Altitude Azimuth Distance (km) Brightness Sun altitude
Exits shadow 02:19:46 15° 90° (E) 1,488 3.4 -31.1°
Drops below altitude 10° 02:20:31 10° 95° (E) 1,760 3.9 -31.0°
Sets 02:22:52 0° 102° (ESE) 2,650 5.1 -30.6°
